Dewpoint
30 30 30 30 30 30 30 29 26 19 15 17 15 17 24 24 16 16 25 31 27 26 23 23 27 29 29 27 28 27 32 36 38 41 42 42 44 47 48 51 53 53 52 53 53 53 53 53 54 55 57 58 60 62 62 63 63 64 65 66 67 67 68 68 69 69 70 70 70 71 71 71 71 71 71 72 72 72 72 71 71 71 71 71 71 71 71
30 30 29 30 30 29 28 27 25 22 17 14 15 16 18 19 24 24 24 32 24 21 21 22 25 30 28 30 33 41 41 37 42 41 40 39 41 45 47 49 50 53 53 53 54 54 55 55 55 55 57 59 60 61 61 62 64 64 65 66 67 67 68 68 69 70 70 71 71 71 71 71 71 72 71 72 71 72 72 72 72 72 71 71 71 70 70
30 29 31 30 27 27 27 29 29 24 19 15 14 14 16 25 20 19 21 32 29 26 28 23 23 34 32 35 32 28 32 32 33 40 39 40 41 42 46 49 50 51 53 54 54 55 56 56 56 56 57 58 59 59 61 62 63 64 65 66 67 67 68 68 69 70 70 71 71 71 71 71 71 72 72 72 72 72 72 72 72 72 71 71 70 70 70
28 29 28 27 27 27 28 29 29 28 22 18 15 16 16 21 23 24 19 22 26 29 29 31 29 29 30 27 25 26 32 37 44 43 42 42 43 43 43 47 49 51 51 53 54 54 54 55 56 56 57 58 59 60 61 62 62 64 65 66 66 68 68 69 69 70 70 71 71 71 71 71 72 72 72 72 72 72 72 72 72 72 71 71 71 71 71
29 27 28 27 26 29 24 22 22 25 25 21 17 17 24 20 17 19 19 18 24 26 32 27 25 25 26 29 28 28 34 45 45 44 43 42 43 45 47 48 51 49 49 50 53 53 53 54 55 55 57 57 59 60 62 62 63 64 65 66 67 68 68 69 70 70 70 70 71 71 71 72 72 72 72 72 72 72 71 72 72 71 71 71 71 71 71
29 27 27 28 29 24 21 32 39 36 22 22 19 17 15 19 17 16 18 20 24 24 29 24 22 23 26 28 43 42 41 47 50 50 50 48 46 47 47 47 47 50 52 51 52 53 54 55 55 56 58 57 59 60 61 63 63 65 65 66 67 67 68 69 70 70 70 70 71 71 71 72 72 72 72 72 72 72 72 72 72 71 71 71 71 71 71
27 27 28 30 23 22 35 32 45 47 44 32 20 20 17 15 18 17 19 22 25 24 24 24 23 25 53 59 60 61 61 57 58 58 56 53 54 55 54 53 49 51 53 54 54 55 54 54 56 58 58 59 60 61 63 63 64 65 66 66 67 67 68 69 70 70 70 70 70 71 71 72 72 72 72 72 72 72 72 71 71 71 71 71 71 71 71
31 28 28 23 20 32 30 34 48 50 48 48 44 28 21 19 16 20 19 21 22 25 25 25 30 55 57 58 60 61 62 63 62 62 62 63 63 59 55 54 54 54 53 54 53 54 57 58 57 57 58 59 59 60 62 63 64 65 66 66 67 68 68 69 69 70 70 70 70 71 71 71 71 72 72 72 72 72 72 72 72 72 72 71 71 71 71
25 26 26 25 30 28 33 45 46 47 46 47 47 43 39 36 48 27 21 21 23 26 29 28 37 53 52 53 54 60 62 62 63 64 64 64 64 64 62 58 54 56 56 56 55 59 60 58 58 57 58 59 60 61 62 63 64 64 65 66 67 68 68 69 69 70 70 70 71 71 71 71 71 71 72 72 72 72 72 72 71 71 71 71 71 71 71
27 24 23 26 28 28 33 45 48 49 49 49 50 47 43 44 48 50 38 26 23 27 39 36 39 51 45 45 48 55 62 63 63 64 64 64 65 65 65 65 65 65 63 58 58 56 58 59 59 59 59 61 62 63 63 63 64 64 65 66 67 68 68 69 69 70 70 71 71 71 71 71 71 71 72 72 72 72 72 71 71 71 72 71 72 71 71
30 26 23 25 27 30 37 46 49 50 50 51 51 43 39 42 53 54 51 43 33 26 36 38 47 42 35 37 47 54 62 63 63 63 63 64 64 65 65 66 66 66 66 65 59 60 59 58 60 61 60 61 62 63 64 63 64 64 65 66 67 67 68 69 70 70 71 71 71 71 71 71 71 71 71 72 72 72 72 72 72 72 71 71 71 71 71
28 29 27 27 33 33 43 49 49 50 52 52 45 33 32 47 52 52 54 55 48 40 38 43 43 36 32 34 46 60 62 63 63 63 63 63 64 64 65 66 67 67 67 64 60 59 59 61 62 63 61 62 63 63 64 63 63 64 65 66 67 67 68 69 70 70 71 71 71 71 71 71 71 71 72 72 72 72 72 72 71 71 71 71 71 71 71
27 29 26 30 32 39 50 50 51 51 52 43 33 30 34 50 50 51 55 59 57 51 43 44 39 48 51 53 61 62 63 63 63 63 64 64 64 64 65 66 67 67 67 67 65 65 66 64 62 62 62 62 63 64 64 64 64 64 65 66 67 68 69 69 70 70 70 71 71 71 71 71 72 72 72 72 72 72 71 72 72 72 71 71 70 71 71
26 31 25 26 33 39 50 52 52 51 47 36 33 43 50 50 50 55 59 59 59 58 52 52 57 60 62 62 62 62 62 62 63 63 64 64 64 65 65 67 66 66 67 67 67 67 68 68 66 63 64 64 64 65 65 64 64 64 67 68 68 68 68 69 69 70 70 71 71 71 71 71 71 71 72 72 72 72 72 72 71 71 71 71 70 71 71
38 40 33 32 28 37 52 52 51 51 46 47 50 49 49 50 53 56 58 59 59 60 59 60 61 61 61 62 62 62 62 63 63 63 64 64 64 64 65 65 66 66 66 66 66 66 67 68 68 67 65 64 65 65 65 65 65 67 67 67 68 68 68 68 69 70 70 71 70 71 71 71 71 71 71 72 72 72 72 72 71 71 71 71 70 70 70
33 36 32 32 40 47 53 50 46 51 51 51 50 48 49 50 50 50 56 59 60 60 60 60 61 61 61 61 61 61 62 62 63 64 64 65 65 65 65 65 65 65 65 66 66 66 67 67 68 67 68 66 66 65 65 68 68 68 68 68 68 68 68 68 68 69 70 70 70 71 71 71 71 71 71 71 71 72 72 71 71 71 71 71 70 70 69
42 37 40 46 52 54 54 54 54 53 52 51 50 50 50 50 50 50 51 53 55 58 60 61 61 60 60 60 60 60 61 62 63 63 64 64 64 64 64 64 65 66 65 65 65 66 66 67 67 67 67 68 68 67 68 69 69 69 68 68 68 67 67 67 68 68 69 70 70 71 71 71 71 71 71 71 71 71 71 72 71 71 71 70 70 69 69
48 49 52 54 54 54 54 56 56 53 51 51 50 49 50 50 50 50 50 50 52 53 55 58 58 58 58 59 59 60 61 62 62 64 64 64 65 64 64 64 65 65 66 66 66 65 66 67 67 67 67 67 67 67 68 69 71 71 69 68 68 67 67 67 67 68 68 69 70 70 71 71 71 71 71 71 71 71 71 71 71 71 71 70 70 69 68
43 39 51 52 52 53 54 54 54 54 52 51 51 50 50 50 50 50 51 51 52 53 55 55 56 57 58 58 59 60 61 61 62 63 63 64 64 64 64 64 65 65 65 65 65 65 65 66 67 67 67 68 68 68 68 69 71 72 71 69 68 68 67 67 67 67 67 67 68 69 70 70 71 71 72 72 71 71 71 72 71 71 70 69 69 68 68
42 42 50 52 54 54 55 54 53 53 54 53 53 52 52 52 52 53 53 53 53 54 53 54 55 56 57 58 59 59 60 61 62 63 63 64 64 65 65 65 65 65 65 65 65 65 66 66 67 67 67 67 67 68 68 69 70 71 71 71 70 69 68 68 67 67 67 68 68 70 70 71 71 72 72 72 71 71 70 71 70 70 69 68 68 68 67
44 48 52 53 53 53 54 55 55 55 55 54 53 53 52 52 51 51 52 53 53 55 54 55 54 54 56 57 58 59 59 60 61 62 63 64 64 65 65 65 65 65 65 65 65 65 66 66 67 67 67 67 67 67 67 68 68 69 69 68 69 70 70 70 69 68 68 68 69 69 70 71 71 72 71 71 71 72 72 72 71 70 69 69 69 69 68
39 42 48 52 46 45 51 54 55 54 54 53 53 53 52 52 53 53 53 53 53 54 54 54 54 53 54 55 56 58 59 59 60 61 62 63 64 64 65 65 65 65 65 65 65 65 66 66 66 66 66 66 66 66 67 67 67 68 68 68 68 69 69 69 69 70 69 69 69 69 69 69 70 71 66 60 68 71 71 67 65 63 63 69 68 66 64
41 47 51 52 52 50 52 54 55 54 54 54 52 53 52 53 53 54 53 53 53 53 54 54 54 53 53 54 55 57 57 57 59 60 61 62 62 63 64 64 64 64 65 66 65 65 66 66 66 66 66 66 66 66 66 67 66 66 67 67 67 67 67 67 66 67 68 69 69 70 70 70 70 70 68 64 53 54 61 64 59 55 56 57 57 61 64
44 46 50 53 53 51 53 55 55 55 55 52 52 54 54 54 53 52 52 52 52 52 53 54 54 53 53 52 54 55 55 56 57 58 59 60 61 62 63 63 63 64 64 64 64 65 65 66 66 66 66 66 66 66 66 66 66 66 65 65 65 65 65 65 65 65 66 65 65 66 67 68 68 68 65 64 63 52 52 56 54 53 53 53 54 55 57
45 51 53 53 54 54 55 55 55 56 56 55 53 54 53 53 53 52 51 52 52 53 52 53 54 54 53 51 52 54 54 55 56 57 58 59 60 60 61 62 63 63 63 64 64 64 64 65 66 66 66 67 68 67 66 66 66 65 65 66 66 65 64 65 65 65 64 64 63 64 63 64 64 65 64 64 64 61 54 50 50 51 51 51 52 54 55
51 51 53 54 54 55 54 54 53 54 55 54 54 54 54 55 53 53 52 52 53 54 54 54 53 52 53 52 52 53 54 55 56 56 55 56 56 56 58 60 62 63 63 63 64 64 64 65 65 66 67 67 68 68 67 66 65 65 64 64 65 65 65 65 64 64 64 63 63 63 62 62 62 63 63 64 64 64 60 57 56 52 49 51 52 51 50
52 53 53 52 52 53 54 51 51 53 53 53 52 51 52 53 54 54 55 55 54 55 55 55 54 54 53 52 54 54 54 54 55 55 55 56 56 56 55 57 61 62 62 62 63 65 65 65 65 65 65 66 67 68 67 67 66 65 64 64 64 66 65 65 63 63 63 63 63 63 62 62 62 62 62 63 63 62 62 61 61 60 57 54 49 50 50
52 53 54 50 50 51 52 53 53 54 53 53 52 51 51 53 53 53 53 53 53 54 54 54 55 53 52 52 52 52 53 54 54 55 56 56 57 57 57 58 59 61 61 62 62 63 64 64 64 65 65 66 67 67 67 66 66 65 65 65 65 64 63 64 64 63 63 62 62 63 63 62 63 63 62 62 62 62 61 62 61 57 55 55 53 50 47
51 52 54 55 55 54 53 53 54 53 53 54 54 53 52 52 52 52 51 51 52 52 53 54 55 55 54 54 53 52 53 53 54 55 55 57 58 58 59 59 60 61 61 61 61 62 63 63 64 64 64 65 66 66 67 66 66 65 65 65 64 64 64 64 63 63 63 62 62 62 61 62 62 62 61 61 61 62 61 59 56 54 52 51 51 50 50
52 53 54 55 53 52 52 52 52 52 52 52 52 52 52 51 51 51 52 52 52 52 53 53 53 54 55 55 54 54 54 54 55 55 56 57 57 58 59 60 61 61 61 61 61 62 62 62 62 63 64 65 66 66 66 66 65 65 64 64 63 64 64 63 63 63 62 62 63 61 62 62 61 60 60 60 60 59 58 56 55 55 56 56 54 52 50
53 53 54 52 52 52 51 51 51 51 51 51 52 52 51 52 51 52 52 53 53 53 53 54 54 54 54 55 54 54 55 55 56 56 57 57 58 59 59 60 61 60 60 61 62 62 62 62 62 63 63 64 65 65 65 66 65 65 64 63 63 60 59 60 61 63 63 63 63 62 62 62 61 61 60 59 59 59 59 59 59 59 59 57 55 52 51
52 51 50 50 51 51 52 52 52 52 51 51 50 51 52 51 52 52 54 54 54 53 53 53 54 54 54 55 55 55 56 56 57 57 57 57 58 58 59 59 60 61 61 62 62 63 63 63 63 63 63 64 64 64 65 65 65 64 64 64 63 63 62 60 63 63 63 63 63 62 62 62 61 60 60 59 59 59 59 59 59 59 58 57 55 52 52
50 50 50 51 51 51 51 52 52 52 53 53 53 54 54 54 54 55 54 55 54 54 53 54 54 55 56 56 56 56 57 57 57 57 57 57 57 58 59 60 59 59 59 60 61 63 64 64 63 63 63 64 64 64 64 64 64 64 64 64 64 64 64 61 61 63 63 63 63 62 62 61 61 60 60 60 59 60 59 59 59 58 57 56 53 53 53
51 50 51 51 51 51 51 52 53 54 54 55 55 55 55 55 54 53 53 54 54 54 55 55 56 57 57 57 57 57 57 57 57 57 57 57 57 58 58 58 59 59 58 59 60 61 63 65 65 64 63 63 63 63 63 63 63 63 64 64 63 63 63 63 62 63 62 63 62 63 62 61 60 60 60 60 59 59 60 59 59 58 57 55 54 54 51
54 54 54 54 54 54 54 54 54 54 54 54 55 55 56 56 56 56 56 55 55 55 56 57 57 57 56 56 56 56 56 56 56 56 57 57 57 57 58 58 57 57 57 57 58 60 62 64 66 65 64 64 63 63 63 63 63 63 63 64 64 64 64 64 63 63 62 62 63 62 61 61 61 62 61 60 60 59 59 60 59 58 57 55 54 53 52
53 53 54 54 54 55 56 56 56 55 55 55 55 56 56 56 56 56 56 56 57 57 57 56 56 56 56 56 56 56 55 56 56 56 56 56 57 57 56 55 55 55 55 56 57 59 61 63 66 66 64 64 64 64 64 63 63 63 63 63 63 63 63 63 63 63 63 62 62 62 62 62 62 61 62 60 60 60 59 59 58 57 55 54 53 53 52
54 54 54 54 55 55 55 55 56 56 55 55 56 56 56 56 56 57 57 57 57 56 56 55 55 55 55 55 55 55 55 55 55 55 55 55 54 53 53 53 54 54 54 54 56 58 60 62 64 64 63 63 63 64 65 65 62 62 62 62 63 62 62 62 61 61 61 62 61 62 62 62 62 62 61 60 59 58 58 58 58 56 55 55 54 53 53
53 54 54 54 54 54 55 55 56 55 55 55 56 57 56 56 56 56 56 56 56 55 55 55 55 55 55 55 55 54 55 55 54 53 53 53 53 52 52 53 53 54 54 55 56 58 60 61 62 62 61 62 63 63 64 65 63 61 61 62 62 62 61 61 60 60 59 60 61 62 62 62 62 61 60 60 59 59 59 58 57 56 55 54 53 53 54
53 54 54 54 54 54 55 55 55 55 55 55 55 55 57 57 56 56 56 56 56 56 55 55 54 54 54 54 54 54 54 54 53 51 51 52 52 52 53 54 54 55 56 57 56 58 60 60 60 60 61 61 62 62 64 64 63 60 60 60 61 61 61 60 60 59 59 59 60 61 61 61 61 61 60 60 60 60 60 58 57 56 54 54 54 54 54
51 51 52 52 52 53 53 54 54 55 55 56 55 55 55 55 55 55 55 56 56 57 56 55 54 54 53 53 52 53 54 54 54 53 52 52 53 53 53 54 56 56 57 59 57 58 59 60 59 58 59 61 62 60 61 62 62 61 60 60 60 60 60 60 60 60 60 59 60 60 60 60 60 60 60 60 60 60 59 58 56 55 54 54 53 53 54
50 50 51 51 51 52 52 53 53 53 54 54 54 54 55 55 55 55 55 56 56 55 53 52 52 51 51 51 51 52 53 55 55 55 55 55 54 54 54 54 56 57 56 56 57 58 58 58 58 56 56 57 60 61 60 61 59 59 59 60 60 59 59 59 59 59 59 59 59 59 59 59 59 59 59 59 59 59 58 58 57 56 56 53 53 53 53
50 50 50 50 50 51 51 51 52 51 51 52 53 52 52 53 52 50 51 50 51 51 53 53 54 51 51 51 52 53 53 54 55 55 55 55 55 55 54 55 57 57 59 58 57 57 57 57 57 58 56 55 56 57 57 56 57 58 59 59 59 59 59 59 58 58 59 59 58 58 58 57 58 58 59 59 58 58 58 57 57 56 56 55 55 55 55
48 48 48 48 49 50 50 49 49 49 50 50 51 50 50 50 49 48 49 48 48 49 49 49 51 51 51 50 51 51 52 53 53 53 52 52 53 54 54 54 55 56 58 57 56 55 56 56 57 57 59 57 56 57 55 51 53 55 57 58 59 60 60 60 59 58 58 58 57 58 57 57 57 57 57 57 58 58 58 57 56 56 56 55 55 55 55
44 44 44 44 44 46 46 48 47 47 47 48 48 48 49 49 49 49 48 48 48 49 48 48 48 48 49 49 49 49 50 50 51 51 50 50 50 51 53 53 53 55 56 54 54 55 55 56 56 57 58 58 58 56 53 51 51 51 51 53 55 56 57 58 58 58 58 58 58 57 58 57 57 57 57 56 55 56 57 57 57 56 55 54 55 55 55
40 41 41 41 41 42 42 45 46 46 46 47 47 48 47 48 48 48 48 48 49 48 50 48 48 47 47 47 47 47 47 48 49 49 49 49 49 50 52 54 52 53 54 54 52 53 54 55 56 58 57 56 56 56 52 52 52 52 51 51 51 51 51 51 52 53 55 56 57 57 57 57 57 57 56 56 55 55 55 56 56 56 56 56 55 55 55
38 39 40 45 41 41 42 42 43 44 45 46 45 46 47 46 46 47 47 47 47 46 46 46 47 47 47 45 46 45 44 45 45 46 48 49 49 50 51 52 51 53 53 53 52 51 53 57 56 55 55 55 55 52 51 52 52 51 51 50 51 52 51 50 50 49 49 51 53 54 53 54 54 54 55 55 55 55 55 55 55 56 56 56 55 55 55
38 39 40 42 41 44 43 43 44 43 43 43 44 45 46 45 45 44 44 44 44 44 45 45 45 46 46 46 46 44 42 42 43 44 46 46 49 49 49 50 51 52 51 50 50 51 52 52 54 54 54 54 53 50 49 50 49 49 49 49 48 48 48 48 49 49 49 49 50 49 49 50 49 52 53 54 55 55 55 54 54 54 55 55 55 55 54
39 39 39 40 41 43 43 44 43 42 43 44 44 45 45 44 43 43 42 42 42 42 42 42 44 45 45 45 44 45 45 43 41 42 44 44 45 46 47 46 47 49 48 49 50 52 53 52 52 52 52 52 49 48 48 48 48 48 48 48 47 47 46 46 46 46 46 47 48 48 48 48 48 47 47 48 49 52 53 52 52 51 52 54 54 54 54
39 39 40 41 41 42 43 44 44 45 44 46 47 46 46 44 43 43 42 41 41 41 40 40 41 41 42 46 45 43 45 46 44 43 44 42 42 43 44 46 48 47 45 44 44 47 50 50 51 50 50 50 46 46 46 47 48 49 48 47 47 46 46 45 45 45 44 44 44 45 45 46 47 48 48 48 47 47 47 48 48 48 47 48 49 50 52
40 40 40 41 41 42 42 43 43 43 45 46 46 46 45 44 42 42 43 42 42 42 39 39 39 40 41 41 41 42 43 45 44 43 43 43 42 41 43 44 45 45 45 42 43 43 48 49 49 50 48 46 46 46 46 46 46 47 47 47 48 47 46 45 45 44 44 44 43 43 43 43 43 44 45 45 46 46 47 47 47 47 47 47 47 47 47
39 39 40 42 42 43 43 44 44 45 44 44 44 45 44 44 43 44 42 42 41 42 40 40 40 40 40 40 41 41 41 42 43 44 42 42 42 43 43 41 41 43 42 41 41 40 42 45 47 47 46 46 45 46 46 46 46 46 47 46 47 47 47 46 44 44 43 43 42 42 42 41 41 41 41 41 41 41 42 43 43 44 44 44 44 45 45
39 39 40 41 41 42 43 43 44 44 44 44 44 44 43 42 42 42 42 45 40 40 41 41 41 42 41 41 42 41 42 42 43 41 43 42 40 39 41 41 38 39 38 38 38 39 39 42 45 48 48 46 46 45 46 46 45 45 46 47 47 46 47 47 47 44 44 43 42 41 41 41 40 39 39 39 39 39 39 39 39 39 40 40 40 42 42